Flag for U.S.A. Weather past 2 weeks in Ontario, California, U.S.A.

Now
72 °F

Clear.


Feels Like: 77 °F
Forecast: 68 / 96 °F
Wind: No wind

Location: Ontario International Airport

Current Time: Aug 29, 2014 at 5:45:21 AM

Latest Report: Aug 29, 2014 at 4:53 AM


Visibility: 10 mi

Pressure: 29.82 "Hg

Humidity: 43%

Dew point: 48 °F

Location of OntarioLocation

Historic Weather in Ontario — Graph

°F

Ontario temperature yesterday

Maximum temperature yesterday: 99 °F (at 1:53 PM)
Minimum temperature yesterday: 72 °F (at 4:53 AM)
Average temperature yesterday: 84 °F

Past Weeks' High & Low Weather Summary

 TemperatureHumidityPressure
High99 °F (Aug 28, 1:53 PM)90% (Aug 23, 4:53 AM)30.01 "Hg (Aug 23, 4:53 AM)
Low62 °F (Aug 24, 6:00 AM)17% (Aug 15, 9:53 PM)29.73 "Hg (Aug 18, 4:53 PM)
Average78 °F48%29.88 "Hg
* Reported Aug 14 4:53 AM — Aug 29 4:53 AM, Ontario, Weather by CustomWeather, © 2014

Note: Actual official high and low records may vary slightly from our data, if they occured in-between our weather recording intervals... More about our weather records

Advertising

Ontario weather history for previous 24 hours

 ConditionsComfort  
Time TempWeatherWind HumidityBarometerVisibility
4:53 AM
Aug 29
72 °FClear.No wind43%29.82 "Hg10 mi
3:53 AM70 °FClear.3 mph46%29.83 "Hg10 mi
2:53 AM72 °FClear.No wind38%29.83 "Hg10 mi
1:53 AM74 °FClear.No wind36%29.83 "Hg10 mi
12:53 AM77 °FClear.No wind26%29.84 "Hg10 mi
11:53 PM
Aug 28
78 °FClear.No wind27%29.85 "Hg10 mi
10:53 PM79 °FClear.No wind24%29.86 "Hg10 mi
9:53 PM81 °FClear.No wind21%29.87 "Hg10 mi
8:53 PM82 °FClear.7 mph20%29.87 "Hg10 mi
7:53 PM85 °FSunny.9 mph20%29.85 "Hg10 mi
6:53 PM88 °FSunny.10 mph23%29.83 "Hg10 mi
5:53 PM93 °FSunny.12 mph22%29.82 "Hg10 mi
4:53 PM95 °FSunny.17 mph19%29.83 "Hg10 mi
3:53 PM98 °FSunny.18 mph19%29.83 "Hg10 mi
2:53 PM99 °FSunny.18 mph18%29.84 "Hg10 mi
1:53 PM99 °FSunny.13 mph18%29.86 "Hg10 mi
12:53 PM97 °FSunny.10 mph19%29.89 "Hg10 mi
11:53 AM93 °FSunny.8 mph23%29.91 "Hg10 mi
10:53 AM88 °FSunny.3 mph27%29.94 "Hg10 mi
9:53 AM85 °FSunny.5 mph30%29.96 "Hg10 mi
8:53 AM82 °FSunny.No wind33%29.96 "Hg10 mi
7:53 AM77 °FSunny.No wind42%29.97 "Hg10 mi
6:53 AM72 °FClear.No wind49%29.97 "Hg10 mi
5:53 AM72 °FClear.3 mph49%29.96 "Hg10 mi
Weather by CustomWeather, © 2014

See weather overviewHow to use our weather pages